Location: Wells
(51.2093°N, 2.6446°W)
Time: 06:06:22
(UTC+01:00)

ITUPSAT 1 - Pass Details

Date: 19 March 2026
Orbit: 686 x 698 km, 98.4° (Epoch: 15 April)

Event Time Altitude Azimuth Distance (km) Brightness Sun altitude
Rises 23:32:16 0° 17° (NNE) 3,073 ? -38.1°
Reaches altitude 10° 23:34:34 10° 21° (NNE) 2,150 ? -38.2°
Enters shadow 23:35:04 13° 23° (NNE) 1,950 ? -38.2°
